User: anonymous   Login
Location: Pine Mountain Observatory
(43.7910°N, 120.9377°W)
Time: 04:58:20
(UTC-08:00)
Language:

Meteor 2-19 Rocket - Orbit

View from above orbital plane
View from above orbital plane
View from above satellite
View from above satellite

Ground track
Ground track

The orbit data is extracted from the following two-line orbital elements,

1 20671U 90057B   17016.90059907  .00000031  00000-0  14747-4 0  9992
2 20671  82.5486 132.3778 0015688  26.7294 333.4671 13.84605538342133
Epoch (UTC): 16 January 2017 21:36:51
Eccentricity: 0.0015688
inclination: 82.5486°
perigee height: 936 km
apogee height: 959 km
right ascension of ascending node: 132.3778°
argument of perigee: 26.7294°
revolutions per day: 13.84605538
mean anomaly at epoch: 333.4671°
orbit number at epoch: 34213

The dashed part of the orbit path shows where the satellite is in the earth's shadow,  

DLR